weather.gov     
National Weather Service

Terminal Aerodrome Forecast
NWS Homepage
This page is being discontinued on March 12, 2014.
The same data is available at this site. Please update your bookmarks.
Thank you, and we apologize for the inconvenience.
Please send an email to SR-SRH.Webmaster@noaa.gov with any concerns.


Current Version
Previous Version:    01  02  03  04  05  06  07  08  09  10  11  12  13  14  15  16  17  18  19  20  21  22  23  24  25  26  27  28  29  30  
   31  
[Printable]
723
FTAK31 PANC 240535
TAFANC
TAF
PANC 240535Z 2406/2512 16014G20KT P6SM VCSH FEW050 BKN070
     FM241000 17008KT P6SM FEW050 SCT070 BKN100
     FM250000 22007KT P6SM -SHRA BKN050
     FM250300 19007KT P6SM -RA SCT025 OVC040
     FM250900 17005KT 6SM -RA BKN025=




723
FTAK31 PANC 240535
TAFANC
TAF
PANC 240535Z 2406/2512 16014G20KT P6SM VCSH FEW050 BKN070
     FM241000 17008KT P6SM FEW050 SCT070 BKN100
     FM250000 22007KT P6SM -SHRA BKN050
     FM250300 19007KT P6SM -RA SCT025 OVC040
     FM250900 17005KT 6SM -RA BKN025=


U.S. Dept. of Commerce
NOAA National Weather Service
1325 East West Highway
Silver Spring, MD 20910
E-mail: w-nws.webmaster@noaa.gov
Page last modified: May 16, 2007
NATIONAL WEATHER SERVICE: for Safety, for Work, for Fun - FOR LIFE